Wetterdaten: Woche 27.01.14 - 02.02.14 (KW5)
Datum Zeit Temp. A. Feuchte A. Wind Richtung Sonnenschein ET UV Solar Taupunkt Windchill Windben
27.01.2014 00:00 -0,3 C 90 % 4,4 km/h (1 Bft) SO 0,00 h 0,000 mm 0,0 UV-I 0 W/m -1,7 C -0,4 C 6,6 km/h (2 Bft)
27.01.2014 01:00 0,1 C 89 % 11,0 km/h (2 Bft) SO 0,00 h 0,000 mm 0,0 UV-I 0 W/m -1,5 C -4,0 C 17,4 km/h (3 Bft)
27.01.2014 02:00 0,3 C 87 % 9,8 km/h (2 Bft) SO 0,00 h 0,000 mm 0,0 UV-I 0 W/m -1,6 C -2,9 C 14,2 km/h (3 Bft)
27.01.2014 03:00 -0,5 C 91 % 8,1 km/h (2 Bft) SO 0,00 h 0,000 mm 0,0 UV-I 0 W/m -1,8 C -2,3 C 12,8 km/h (3 Bft)
27.01.2014 04:00 -1,1 C 93 % 5,0 km/h (1 Bft) O 0,00 h 0,000 mm 0,0 UV-I 0 W/m -2,0 C -1,3 C 8,0 km/h (2 Bft)
27.01.2014 05:00 -2,0 C 94 % 6,0 km/h (2 Bft) O 0,00 h 0,000 mm 0,0 UV-I 0 W/m -2,9 C -2,3 C 9,4 km/h (2 Bft)
27.01.2014 06:00 -2,0 C 95 % 5,4 km/h (1 Bft) O-NO 0,00 h 0,000 mm 0,0 UV-I 0 W/m -2,7 C -2,3 C 8,4 km/h (2 Bft)
27.01.2014 07:00 -0,2 C 95 % 5,8 km/h (2 Bft) S 0,00 h 0,000 mm 0,0 UV-I 0 W/m -0,8 C -0,7 C 9,5 km/h (2 Bft)
27.01.2014 08:00 0,5 C 95 % 5,3 km/h (1 Bft) W-SW 0,00 h 0,000 mm 0,0 UV-I 7 W/m -0,1 C 0,3 C 8,7 km/h (2 Bft)
27.01.2014 09:00 0,9 C 95 % 5,1 km/h (1 Bft) W-SW 0,00 h 0,000 mm 0,0 UV-I 8 W/m 0,2 C 0,8 C 8,1 km/h (2 Bft)
27.01.2014 10:00 1,7 C 94 % 4,0 km/h (1 Bft) W-NW 0,48 h 0,000 mm 0,0 UV-I 59 W/m 0,7 C 1,6 C 6,3 km/h (2 Bft)
27.01.2014 11:00 2,3 C 92 % 3,7 km/h (1 Bft) W-NW 1,00 h 0,025 mm 0,0 UV-I 120 W/m 1,1 C 2,1 C 5,8 km/h (2 Bft)
27.01.2014 12:00 2,0 C 93 % 4,8 km/h (1 Bft) SW 1,00 h 0,051 mm 0,0 UV-I 108 W/m 1,0 C 1,8 C 7,7 km/h (2 Bft)
27.01.2014 13:00 2,5 C 91 % 5,2 km/h (1 Bft) SW 1,00 h 0,051 mm 0,0 UV-I 165 W/m 1,2 C 2,0 C 8,2 km/h (2 Bft)
27.01.2014 14:00 2,6 C 89 % 4,9 km/h (1 Bft) W-NW 1,00 h 0,076 mm 0,0 UV-I 170 W/m 0,9 C 2,0 C 8,1 km/h (2 Bft)
27.01.2014 15:00 2,4 C 88 % 3,3 km/h (1 Bft) SW 0,72 h 0,076 mm 0,0 UV-I 109 W/m 0,6 C 2,3 C 5,6 km/h (1 Bft)
27.01.2014 16:00 1,8 C 89 % 0,7 km/h (0 Bft) W-SW 0,00 h 0,051 mm 0,0 UV-I 14 W/m 0,2 C 1,8 C 1,5 km/h (1 Bft)
27.01.2014 17:00 1,1 C 92 % 1,8 km/h (1 Bft) S 0,00 h 0,000 mm 0,0 UV-I 0 W/m -0,1 C 1,1 C 3,1 km/h (1 Bft)
27.01.2014 18:00 0,6 C 94 % 2,0 km/h (1 Bft) SO 0,00 h 0,000 mm 0,0 UV-I 0 W/m -0,3 C 0,6 C 3,8 km/h (1 Bft)
27.01.2014 19:00 0,1 C 94 % 2,1 km/h (1 Bft) O 0,00 h 0,000 mm 0,0 UV-I 0 W/m -0,7 C 0,1 C 3,3 km/h (1 Bft)
27.01.2014 20:00 -0,3 C 95 % 2,2 km/h (1 Bft) S-SO 0,00 h 0,000 mm 0,0 UV-I 0 W/m -1,1 C -0,3 C 3,9 km/h (1 Bft)
27.01.2014 21:00 -0,4 C 95 % 2,1 km/h (1 Bft) S-SO 0,00 h 0,000 mm 0,0 UV-I 0 W/m -1,1 C -0,4 C 3,6 km/h (1 Bft)
27.01.2014 22:00 -0,9 C 95 % 1,3 km/h (1 Bft) SO 0,00 h 0,000 mm 0,0 UV-I 0 W/m -1,5 C -0,9 C 2,6 km/h (1 Bft)
27.01.2014 23:00 -0,2 C 95 % 3,2 km/h (1 Bft) S 0,00 h 0,000 mm 0,0 UV-I 0 W/m -0,9 C -0,2 C 4,9 km/h (1 Bft)
28.01.2014 00:00 -0,1 C 93 % 2,6 km/h (1 Bft) SW 0,00 h 0,000 mm 0,0 UV-I 0 W/m -1,1 C -0,1 C 4,5 km/h (1 Bft)
28.01.2014 01:00 -0,3 C 93 % 2,7 km/h (1 Bft) S 0,00 h 0,000 mm 0,0 UV-I 0 W/m -1,3 C -0,3 C 4,4 km/h (1 Bft)
28.01.2014 02:00 -0,8 C 93 % 3,1 km/h (1 Bft) S-SO 0,00 h 0,000 mm 0,0 UV-I 0 W/m -1,9 C -0,8 C 5,0 km/h (1 Bft)
28.01.2014 03:00 -1,1 C 93 % 2,4 km/h (1 Bft) S-SO 0,00 h 0,000 mm 0,0 UV-I 0 W/m -2,0 C -1,1 C 4,1 km/h (1 Bft)
28.01.2014 04:00 -1,3 C 92 % 3,0 km/h (1 Bft) S-SO 0,00 h 0,000 mm 0,0 UV-I 0 W/m -2,3 C -1,3 C 4,9 km/h (1 Bft)
28.01.2014 05:00 -1,5 C 92 % 2,8 km/h (1 Bft) SO 0,00 h 0,000 mm 0,0 UV-I 0 W/m -2,7 C -1,7 C 4,5 km/h (1 Bft)
28.01.2014 06:00 -1,5 C 92 % 0,2 km/h (0 Bft) SO 0,00 h 0,000 mm 0,0 UV-I 0 W/m -2,5 C -1,5 C 0,5 km/h (0 Bft)
28.01.2014 07:00 -1,7 C 93 % 1,2 km/h (1 Bft) O-NO 0,00 h 0,000 mm 0,0 UV-I 0 W/m -2,7 C -1,7 C 2,5 km/h (1 Bft)
28.01.2014 08:00 -2,5 C 94 % 2,3 km/h (1 Bft) O-NO 0,00 h 0,000 mm 0,0 UV-I 27 W/m -3,3 C -2,5 C 4,4 km/h (1 Bft)
28.01.2014 09:00 -2,1 C 93 % 2,9 km/h (1 Bft) O-NO 0,98 h 0,000 mm 0,0 UV-I 69 W/m -3,1 C -2,1 C 5,3 km/h (1 Bft)
28.01.2014 10:00 -1,2 C 91 % 0,9 km/h (0 Bft) N-NO 1,00 h 0,025 mm 0,0 UV-I 104 W/m -2,5 C -1,2 C 2,2 km/h (1 Bft)
28.01.2014 11:00 -0,5 C 89 % 0,7 km/h (0 Bft) O-NO 1,00 h 0,025 mm 0,0 UV-I 144 W/m -2,1 C -0,5 C 1,9 km/h (1 Bft)
28.01.2014 12:00 -0,0 C 87 % 1,4 km/h (1 Bft) N-NO 1,00 h 0,051 mm 0,0 UV-I 171 W/m -1,9 C -0,0 C 2,6 km/h (1 Bft)
28.01.2014 13:00 0,1 C 87 % 1,4 km/h (1 Bft) N-NO 1,00 h 0,051 mm 0,0 UV-I 130 W/m -1,8 C 0,1 C 2,9 km/h (1 Bft)
28.01.2014 14:00 0,3 C 87 % 0,9 km/h (0 Bft) N-NO 1,00 h 0,051 mm 0,0 UV-I 91 W/m -1,5 C 0,3 C 1,9 km/h (1 Bft)
28.01.2014 15:00 0,5 C 87 % 0,9 km/h (0 Bft) N-NO 0,65 h 0,025 mm 0,0 UV-I 51 W/m -1,4 C 0,5 C 1,9 km/h (1 Bft)
28.01.2014 16:00 0,5 C 90 % 1,7 km/h (1 Bft) N-NO 0,00 h 0,025 mm 0,0 UV-I 21 W/m -1,0 C 0,5 C 3,2 km/h (1 Bft)
28.01.2014 17:00 0,0 C 92 % 0,7 km/h (0 Bft) N-NO 0,00 h 0,000 mm 0,0 UV-I 0 W/m -1,1 C 0,0 C 1,9 km/h (1 Bft)
28.01.2014 18:00 -0,3 C 91 % 3,1 km/h (1 Bft) O 0,00 h 0,000 mm 0,0 UV-I 0 W/m -1,6 C -0,3 C 6,2 km/h (2 Bft)
28.01.2014 19:00 -0,9 C 91 % 5,5 km/h (1 Bft) SO 0,00 h 0,000 mm 0,0 UV-I 0 W/m -2,2 C -1,4 C 9,9 km/h (2 Bft)
28.01.2014 20:00 -1,3 C 91 % 2,2 km/h (1 Bft) O 0,00 h 0,000 mm 0,0 UV-I 0 W/m -2,6 C -1,3 C 4,1 km/h (1 Bft)
28.01.2014 21:00 -1,5 C 91 % 1,6 km/h (1 Bft) O-NO 0,00 h 0,000 mm 0,0 UV-I 0 W/m -2,9 C -1,5 C 3,7 km/h (1 Bft)
28.01.2014 22:00 -1,8 C 91 % 3,5 km/h (1 Bft) O-SO 0,00 h 0,000 mm 0,0 UV-I 0 W/m -3,1 C -1,9 C 6,5 km/h (2 Bft)
28.01.2014 23:00 -2,3 C 93 % 2,1 km/h (1 Bft) O-SO 0,00 h 0,000 mm 0,0 UV-I 0 W/m -3,3 C -2,3 C 4,5 km/h (1 Bft)
29.01.2014 00:00 -2,4 C 93 % 2,0 km/h (1 Bft) O-NO 0,00 h 0,000 mm 0,0 UV-I 0 W/m -3,4 C -2,4 C 4,2 km/h (1 Bft)
29.01.2014 01:00 -2,5 C 92 % 2,3 km/h (1 Bft) O-NO 0,00 h 0,000 mm 0,0 UV-I 0 W/m -3,5 C -2,5 C 4,5 km/h (1 Bft)
29.01.2014 02:00 -2,3 C 93 % 2,5 km/h (1 Bft) O-NO 0,00 h 0,000 mm 0,0 UV-I 0 W/m -3,3 C -2,3 C 5,1 km/h (1 Bft)
29.01.2014 03:00 -2,2 C 92 % 1,9 km/h (1 Bft) O-SO 0,00 h 0,000 mm 0,0 UV-I 0 W/m -3,3 C -2,2 C 4,4 km/h (1 Bft)
29.01.2014 04:00 -2,2 C 92 % 3,2 km/h (1 Bft) O-NO 0,00 h 0,000 mm 0,0 UV-I 0 W/m -3,4 C -2,2 C 6,5 km/h (2 Bft)
29.01.2014 05:00 -2,1 C 90 % 2,6 km/h (1 Bft) O 0,00 h 0,000 mm 0,0 UV-I 0 W/m -3,4 C -2,1 C 5,2 km/h (1 Bft)
29.01.2014 06:00 -2,1 C 90 % 4,4 km/h (1 Bft) O-SO 0,00 h 0,000 mm 0,0 UV-I 0 W/m -3,5 C -2,2 C 8,0 km/h (2 Bft)
29.01.2014 07:00 -2,0 C 88 % 4,1 km/h (1 Bft) SO 0,00 h 0,000 mm 0,0 UV-I 0 W/m -3,7 C -2,3 C 7,2 km/h (2 Bft)
29.01.2014 08:00 -2,1 C 89 % 5,1 km/h (1 Bft) SO 0,00 h 0,000 mm 0,0 UV-I 16 W/m -3,7 C -2,6 C 9,1 km/h (2 Bft)
29.01.2014 09:00 -2,1 C 89 % 6,7 km/h (2 Bft) SO 0,00 h 0,000 mm 0,0 UV-I 33 W/m -3,6 C -3,4 C 11,1 km/h (2 Bft)
29.01.2014 10:00 -1,8 C 89 % 7,0 km/h (2 Bft) SO 0,70 h 0,025 mm 0,0 UV-I 57 W/m -3,4 C -3,1 C 11,8 km/h (2 Bft)
29.01.2014 11:00 -1,6 C 89 % 6,3 km/h (2 Bft) SO 0,93 h 0,025 mm 0,0 UV-I 58 W/m -3,2 C -2,6 C 10,6 km/h (2 Bft)
29.01.2014 12:00 -1,2 C 87 % 7,2 km/h (2 Bft) SO 1,00 h 0,025 mm 0,0 UV-I 75 W/m -3,1 C -2,7 C 10,9 km/h (2 Bft)
29.01.2014 13:00 -1,1 C 87 % 7,7 km/h (2 Bft) SO 0,98 h 0,025 mm 0,0 UV-I 59 W/m -3,0 C -2,9 C 12,3 km/h (3 Bft)
29.01.2014 14:00 -1,3 C 87 % 7,3 km/h (2 Bft) O-SO 0,18 h 0,025 mm 0,0 UV-I 43 W/m -3,2 C -2,7 C 13,4 km/h (3 Bft)
29.01.2014 15:00 -1,9 C 89 % 6,8 km/h (2 Bft) O-SO 0,00 h 0,025 mm 0,0 UV-I 19 W/m -3,5 C -3,3 C 11,6 km/h (2 Bft)
29.01.2014 16:00 -2,2 C 88 % 6,1 km/h (2 Bft) O-SO 0,00 h 0,000 mm 0,0 UV-I 6 W/m -3,8 C -3,0 C 10,7 km/h (2 Bft)
29.01.2014 17:00 -2,4 C 87 % 6,9 km/h (2 Bft) SO 0,00 h 0,000 mm 0,0 UV-I 0 W/m -4,2 C -3,6 C 11,8 km/h (2 Bft)
29.01.2014 18:00 -2,6 C 87 % 6,5 km/h (2 Bft) SO 0,00 h 0,000 mm 0,0 UV-I 0 W/m -4,4 C -3,7 C 11,7 km/h (2 Bft)
29.01.2014 19:00 -2,7 C 86 % 8,0 km/h (2 Bft) O-SO 0,00 h 0,000 mm 0,0 UV-I 0 W/m -4,6 C -4,9 C 13,7 km/h (3 Bft)
29.01.2014 20:00 -2,7 C 87 % 6,7 km/h (2 Bft) SO 0,00 h 0,000 mm 0,0 UV-I 0 W/m -4,5 C -4,3 C 12,0 km/h (2 Bft)
29.01.2014 21:00 -2,7 C 87 % 6,7 km/h (2 Bft) SO 0,00 h 0,000 mm 0,0 UV-I 0 W/m -4,5 C -3,8 C 11,7 km/h (2 Bft)
29.01.2014 22:00 -2,6 C 87 % 5,7 km/h (1 Bft) SO 0,00 h 0,000 mm 0,0 UV-I 0 W/m -4,4 C -3,3 C 10,5 km/h (2 Bft)
29.01.2014 23:00 -2,6 C 88 % 5,8 km/h (2 Bft) SO 0,00 h 0,000 mm 0,0 UV-I 0 W/m -4,3 C -3,4 C 10,5 km/h (2 Bft)
30.01.2014 00:00 -2,7 C 88 % 5,9 km/h (2 Bft) O-SO 0,00 h 0,000 mm 0,0 UV-I 0 W/m -4,4 C -3,5 C 11,1 km/h (2 Bft)
30.01.2014 01:00 -3,0 C 88 % 5,9 km/h (2 Bft) O-SO 0,00 h 0,000 mm 0,0 UV-I 0 W/m -4,7 C -3,7 C 10,8 km/h (2 Bft)
30.01.2014 02:00 -3,3 C 88 % 4,4 km/h (1 Bft) O-SO 0,00 h 0,000 mm 0,0 UV-I 0 W/m -4,9 C -3,4 C 8,4 km/h (2 Bft)
30.01.2014 03:00 -3,6 C 89 % 5,8 km/h (2 Bft) O-SO 0,00 h 0,000 mm 0,0 UV-I 0 W/m -5,1 C -4,2 C 10,5 km/h (2 Bft)
30.01.2014 04:00 -3,7 C 89 % 5,9 km/h (2 Bft) O-SO 0,00 h 0,000 mm 0,0 UV-I 0 W/m -5,3 C -4,4 C 11,5 km/h (2 Bft)
30.01.2014 05:00 -4,1 C 90 % 4,5 km/h (1 Bft) O-SO 0,00 h 0,000 mm 0,0 UV-I 0 W/m -5,5 C -4,5 C 8,5 km/h (2 Bft)
30.01.2014 06:00 -4,1 C 90 % 4,1 km/h (1 Bft) O-SO 0,00 h 0,000 mm 0,0 UV-I 0 W/m -5,5 C -4,3 C 8,3 km/h (2 Bft)
30.01.2014 07:00 -4,1 C 91 % 5,3 km/h (1 Bft) O 0,00 h 0,000 mm 0,0 UV-I 6 W/m -5,4 C -4,7 C 10,8 km/h (2 Bft)
30.01.2014 08:00 -4,3 C 90 % 6,2 km/h (2 Bft) O 0,32 h 0,000 mm 0,0 UV-I 37 W/m -5,6 C -5,3 C 11,9 km/h (2 Bft)
30.01.2014 09:00 -3,6 C 88 % 7,7 km/h (2 Bft) O 1,00 h 0,025 mm 0,0 UV-I 159 W/m -5,3 C -5,8 C 14,1 km/h (3 Bft)
30.01.2014 10:00 -3,1 C 86 % 8,8 km/h (2 Bft) O 1,00 h 0,051 mm 0,0 UV-I 182 W/m -5,1 C -5,7 C 16,6 km/h (3 Bft)
30.01.2014 11:00 -3,0 C 86 % 7,9 km/h (2 Bft) O 1,00 h 0,051 mm 0,0 UV-I 170 W/m -5,0 C -5,3 C 15,5 km/h (3 Bft)
30.01.2014 12:00 -2,9 C 85 % 9,1 km/h (2 Bft) O 1,00 h 0,051 mm 0,0 UV-I 188 W/m -5,0 C -5,8 C 17,1 km/h (3 Bft)
30.01.2014 13:00 -3,0 C 86 % 8,1 km/h (2 Bft) O 1,00 h 0,076 mm 0,0 UV-I 154 W/m -5,0 C -5,3 C 16,0 km/h (3 Bft)
30.01.2014 14:00 -2,9 C 86 % 9,9 km/h (2 Bft) O 1,00 h 0,051 mm 0,0 UV-I 120 W/m -4,9 C -6,3 C 17,8 km/h (3 Bft)
30.01.2014 15:00 -3,1 C 87 % 10,4 km/h (2 Bft) O 0,73 h 0,051 mm 0,0 UV-I 61 W/m -5,0 C -7,1 C 18,7 km/h (3 Bft)
30.01.2014 16:00 -3,2 C 88 % 10,2 km/h (2 Bft) O 0,00 h 0,025 mm 0,0 UV-I 16 W/m -4,9 C -7,1 C 19,4 km/h (3 Bft)
30.01.2014 17:00 -3,3 C 88 % 10,9 km/h (2 Bft) O-NO 0,00 h 0,000 mm 0,0 UV-I 0 W/m -4,9 C -7,8 C 19,4 km/h (3 Bft)
30.01.2014 18:00 -3,2 C 89 % 8,4 km/h (2 Bft) O 0,00 h 0,000 mm 0,0 UV-I 0 W/m -4,7 C -5,8 C 15,0 km/h (3 Bft)
30.01.2014 19:00 -3,1 C 90 % 7,4 km/h (2 Bft) O-SO 0,00 h 0,000 mm 0,0 UV-I 0 W/m -4,5 C -4,9 C 14,1 km/h (3 Bft)
30.01.2014 20:00 -2,8 C 91 % 8,6 km/h (2 Bft) O 0,00 h 0,000 mm 0,0 UV-I 0 W/m -4,0 C -5,1 C 15,3 km/h (3 Bft)
30.01.2014 21:00 -2,7 C 93 % 8,0 km/h (2 Bft) O 0,00 h 0,000 mm 0,0 UV-I 0 W/m -3,7 C -4,9 C 14,7 km/h (3 Bft)
30.01.2014 22:00 -2,3 C 93 % 7,0 km/h (2 Bft) N-NO 0,00 h 0,000 mm 0,0 UV-I 0 W/m -3,3 C -4,2 C 12,6 km/h (3 Bft)
30.01.2014 23:00 -2,0 C 92 % 7,9 km/h (2 Bft) O 0,00 h 0,000 mm 0,0 UV-I 0 W/m -3,1 C -4,0 C 14,5 km/h (3 Bft)
31.01.2014 00:00 -1,7 C 93 % 7,0 km/h (2 Bft) O 0,00 h 0,000 mm 0,0 UV-I 0 W/m -2,7 C -3,2 C 13,0 km/h (3 Bft)
31.01.2014 01:00 -1,4 C 93 % 7,9 km/h (2 Bft) O-NO 0,00 h 0,000 mm 0,0 UV-I 0 W/m -2,4 C -3,4 C 13,7 km/h (3 Bft)
31.01.2014 02:00 -1,1 C 92 % 7,7 km/h (2 Bft) O 0,00 h 0,000 mm 0,0 UV-I 0 W/m -2,1 C -3,0 C 13,9 km/h (3 Bft)
31.01.2014 03:00 -0,8 C 92 % 7,7 km/h (2 Bft) O-NO 0,00 h 0,000 mm 0,0 UV-I 0 W/m -1,9 C -2,5 C 13,8 km/h (3 Bft)
31.01.2014 04:00 -0,6 C 92 % 5,6 km/h (1 Bft) O 0,00 h 0,000 mm 0,0 UV-I 0 W/m -1,8 C -1,4 C 10,4 km/h (2 Bft)
31.01.2014 05:00 -0,5 C 92 % 4,0 km/h (1 Bft) O 0,00 h 0,000 mm 0,0 UV-I 0 W/m -1,7 C -0,7 C 7,9 km/h (2 Bft)
31.01.2014 06:00 -0,3 C 92 % 4,0 km/h (1 Bft) O 0,00 h 0,000 mm 0,0 UV-I 0 W/m -1,5 C -0,4 C 8,3 km/h (2 Bft)
31.01.2014 07:00 -0,3 C 92 % 1,9 km/h (1 Bft) SO 0,00 h 0,000 mm 0,0 UV-I 5 W/m -1,4 C -0,3 C 3,9 km/h (1 Bft)
31.01.2014 08:00 -0,2 C 92 % 3,2 km/h (1 Bft) O 0,00 h 0,000 mm 0,0 UV-I 18 W/m -1,2 C -0,1 C 6,5 km/h (2 Bft)
31.01.2014 09:00 0,5 C 91 % 2,7 km/h (1 Bft) O 0,87 h 0,000 mm 0,0 UV-I 92 W/m -0,7 C 0,5 C 5,2 km/h (1 Bft)
31.01.2014 10:00 1,5 C 88 % 2,4 km/h (1 Bft) O 1,00 h 0,025 mm 0,0 UV-I 160 W/m -0,3 C 1,4 C 5,0 km/h (1 Bft)
31.01.2014 11:00 1,6 C 88 % 2,9 km/h (1 Bft) O-NO 1,00 h 0,051 mm 0,0 UV-I 140 W/m -0,2 C 1,5 C 6,0 km/h (2 Bft)
31.01.2014 12:00 1,8 C 87 % 3,3 km/h (1 Bft) O-NO 1,00 h 0,051 mm 0,0 UV-I 176 W/m -0,0 C 1,8 C 5,8 km/h (2 Bft)
31.01.2014 13:00 2,0 C 87 % 3,2 km/h (1 Bft) O 1,00 h 0,076 mm 0,0 UV-I 176 W/m 0,1 C 2,0 C 5,9 km/h (2 Bft)
31.01.2014 14:00 1,9 C 88 % 2,4 km/h (1 Bft) O 1,00 h 0,076 mm 0,0 UV-I 93 W/m 0,1 C 1,9 C 4,8 km/h (1 Bft)
31.01.2014 15:00 1,6 C 90 % 2,5 km/h (1 Bft) O-SO 0,35 h 0,025 mm 0,0 UV-I 48 W/m 0,1 C 1,6 C 5,3 km/h (1 Bft)
31.01.2014 16:00 1,3 C 91 % 3,9 km/h (1 Bft) O-SO 0,00 h 0,025 mm 0,0 UV-I 15 W/m -0,0 C 1,2 C 7,2 km/h (2 Bft)
31.01.2014 17:00 1,0 C 93 % 3,5 km/h (1 Bft) O 0,00 h 0,000 mm 0,0 UV-I 0 W/m -0,1 C 1,0 C 6,8 km/h (2 Bft)
31.01.2014 18:00 0,9 C 93 % 3,3 km/h (1 Bft) O-SO 0,00 h 0,000 mm 0,0 UV-I 0 W/m -0,1 C 0,8 C 5,9 km/h (2 Bft)
31.01.2014 19:00 0,7 C 94 % 2,4 km/h (1 Bft) O-SO 0,00 h 0,001 mm 0,0 UV-I 0 W/m -0,2 C 0,7 C 4,8 km/h (1 Bft)
31.01.2014 20:00 0,6 C 94 % 2,4 km/h (1 Bft) O-SO 0,00 h 0,000 mm 0,0 UV-I 0 W/m -0,2 C 0,6 C 4,7 km/h (1 Bft)
31.01.2014 21:00 0,6 C 94 % 2,6 km/h (1 Bft) O 0,00 h 0,000 mm 0,0 UV-I 0 W/m -0,4 C 0,6 C 5,3 km/h (1 Bft)
31.01.2014 22:00 0,3 C 94 % 2,7 km/h (1 Bft) O 0,00 h 0,000 mm 0,0 UV-I 0 W/m -0,6 C 0,3 C 5,0 km/h (1 Bft)
31.01.2014 23:00 0,1 C 94 % 3,2 km/h (1 Bft) O 0,00 h 0,000 mm 0,0 UV-I 0 W/m -0,8 C 0,1 C 6,2 km/h (2 Bft)
01.02.2014 00:00 0,0 C 94 % 2,4 km/h (1 Bft) O-SO 0,00 h 0,000 mm 0,0 UV-I 0 W/m -0,9 C 0,0 C 5,2 km/h (1 Bft)
01.02.2014 01:00 -0,1 C 94 % 2,3 km/h (1 Bft) O-SO 0,00 h 0,000 mm 0,0 UV-I 0 W/m -1,0 C -0,1 C 4,9 km/h (1 Bft)
01.02.2014 02:00 -0,2 C 94 % 3,4 km/h (1 Bft) O 0,00 h 0,000 mm 0,0 UV-I 0 W/m -1,0 C -0,2 C 6,7 km/h (2 Bft)
01.02.2014 03:00 -0,4 C 94 % 4,4 km/h (1 Bft) O-NO 0,00 h 0,000 mm 0,0 UV-I 0 W/m -1,2 C -0,4 C 8,1 km/h (2 Bft)
01.02.2014 04:00 -0,6 C 94 % 4,1 km/h (1 Bft) O 0,00 h 0,000 mm 0,0 UV-I 0 W/m -1,4 C -0,7 C 7,9 km/h (2 Bft)
01.02.2014 05:00 -0,9 C 94 % 4,1 km/h (1 Bft) O 0,00 h 0,000 mm 0,0 UV-I 0 W/m -1,7 C -1,0 C 7,7 km/h (2 Bft)
01.02.2014 06:00 -1,3 C 95 % 5,1 km/h (1 Bft) O 0,00 h 0,000 mm 0,0 UV-I 0 W/m -2,0 C -1,5 C 9,7 km/h (2 Bft)
01.02.2014 07:00 -1,4 C 95 % 6,6 km/h (2 Bft) O 0,00 h 0,000 mm 0,0 UV-I 6 W/m -2,1 C -2,3 C 11,9 km/h (2 Bft)
01.02.2014 08:00 -1,0 C 95 % 7,6 km/h (2 Bft) O 0,52 h 0,000 mm 0,0 UV-I 51 W/m -1,6 C -2,6 C 13,2 km/h (3 Bft)
01.02.2014 09:00 0,4 C 92 % 5,2 km/h (1 Bft) O 1,00 h 0,025 mm 0,0 UV-I 160 W/m -0,7 C 0,1 C 9,8 km/h (2 Bft)
01.02.2014 10:00 1,2 C 89 % 6,0 km/h (2 Bft) O 1,00 h 0,051 mm 0,0 UV-I 190 W/m -0,4 C 0,1 C 11,2 km/h (2 Bft)
01.02.2014 11:00 0,8 C 90 % 6,4 km/h (2 Bft) O 1,00 h 0,076 mm 0,0 UV-I 232 W/m -0,6 C -0,1 C 12,4 km/h (3 Bft)
01.02.2014 12:00 0,7 C 91 % 7,7 km/h (2 Bft) O 1,00 h 0,076 mm 0,0 UV-I 181 W/m -0,6 C -1,0 C 13,9 km/h (3 Bft)
01.02.2014 13:00 0,7 C 91 % 5,1 km/h (1 Bft) O-SO 1,00 h 0,076 mm 0,0 UV-I 139 W/m -0,5 C 0,4 C 9,8 km/h (2 Bft)
01.02.2014 14:00 0,9 C 92 % 5,1 km/h (1 Bft) O 0,87 h 0,051 mm 0,0 UV-I 87 W/m -0,3 C 0,5 C 9,6 km/h (2 Bft)
01.02.2014 15:00 1,0 C 92 % 5,4 km/h (1 Bft) O 0,70 h 0,025 mm 0,0 UV-I 60 W/m -0,1 C 0,4 C 10,1 km/h (2 Bft)
01.02.2014 16:00 1,0 C 92 % 3,7 km/h (1 Bft) O 0,00 h 0,025 mm 0,0 UV-I 15 W/m -0,1 C 1,0 C 7,7 km/h (2 Bft)
01.02.2014 17:00 1,1 C 92 % 3,3 km/h (1 Bft) N-NO 0,00 h 0,000 mm 0,0 UV-I 0 W/m -0,0 C 1,1 C 6,4 km/h (2 Bft)
01.02.2014 18:00 1,0 C 93 % 2,4 km/h (1 Bft) O 0,00 h 0,000 mm 0,0 UV-I 0 W/m -0,0 C 1,0 C 5,0 km/h (1 Bft)
01.02.2014 19:00 0,9 C 94 % 2,4 km/h (1 Bft) O-NO 0,00 h 0,000 mm 0,0 UV-I 0 W/m 0,0 C 0,9 C 4,6 km/h (1 Bft)
01.02.2014 20:00 1,2 C 92 % 1,7 km/h (1 Bft) NO 0,00 h 0,000 mm 0,0 UV-I 0 W/m 0,1 C 1,2 C 3,9 km/h (1 Bft)
01.02.2014 21:00 0,9 C 92 % 1,8 km/h (1 Bft) O 0,00 h 0,000 mm 0,0 UV-I 0 W/m -0,2 C 0,9 C 3,6 km/h (1 Bft)
01.02.2014 22:00 0,7 C 93 % 2,8 km/h (1 Bft) O 0,00 h 0,000 mm 0,0 UV-I 0 W/m -0,2 C 0,6 C 6,0 km/h (2 Bft)
01.02.2014 23:00 0,9 C 93 % 5,4 km/h (1 Bft) O 0,00 h 0,000 mm 0,0 UV-I 0 W/m -0,1 C 0,4 C 9,5 km/h (2 Bft)
02.02.2014 00:00 0,7 C 93 % 3,9 km/h (1 Bft) O-NO 0,00 h 0,000 mm 0,0 UV-I 0 W/m -0,3 C 0,5 C 7,6 km/h (2 Bft)
02.02.2014 01:00 0,6 C 94 % 2,4 km/h (1 Bft) O-NO 0,00 h 0,000 mm 0,0 UV-I 0 W/m -0,3 C 0,6 C 4,7 km/h (1 Bft)
02.02.2014 02:00 0,4 C 93 % 4,1 km/h (1 Bft) O 0,00 h 0,000 mm 0,0 UV-I 0 W/m -0,5 C 0,2 C 7,3 km/h (2 Bft)
02.02.2014 03:00 0,2 C 94 % 3,8 km/h (1 Bft) O-NO 0,00 h 0,000 mm 0,0 UV-I 0 W/m -0,7 C 0,1 C 6,8 km/h (2 Bft)
02.02.2014 04:00 0,1 C 94 % 4,4 km/h (1 Bft) O-NO 0,00 h 0,000 mm 0,0 UV-I 0 W/m -0,8 C -0,2 C 8,0 km/h (2 Bft)
02.02.2014 05:00 0,0 C 93 % 2,6 km/h (1 Bft) O-NO 0,00 h 0,000 mm 0,0 UV-I 0 W/m -0,9 C 0,0 C 5,1 km/h (1 Bft)
02.02.2014 06:00 0,2 C 94 % 4,0 km/h (1 Bft) O-NO 0,00 h 0,000 mm 0,0 UV-I 0 W/m -0,7 C -0,2 C 7,6 km/h (2 Bft)
02.02.2014 07:00 0,3 C 93 % 2,6 km/h (1 Bft) N-NO 0,00 h 0,000 mm 0,0 UV-I 5 W/m -0,7 C 0,3 C 5,5 km/h (1 Bft)
02.02.2014 08:00 0,3 C 92 % 2,3 km/h (1 Bft) O-NO 0,00 h 0,000 mm 0,0 UV-I 26 W/m -0,8 C 0,3 C 4,8 km/h (1 Bft)
02.02.2014 09:00 0,5 C 92 % 3,3 km/h (1 Bft) O-NO 0,00 h 0,000 mm 0,0 UV-I 32 W/m -0,7 C 0,5 C 6,0 km/h (2 Bft)
02.02.2014 10:00 0,4 C 92 % 1,6 km/h (1 Bft) O-NO 0,00 h 0,025 mm 0,0 UV-I 36 W/m -0,8 C 0,4 C 3,5 km/h (1 Bft)
02.02.2014 11:00 0,4 C 92 % 1,4 km/h (1 Bft) SO 0,80 h 0,025 mm 0,0 UV-I 65 W/m -0,8 C 0,4 C 2,9 km/h (1 Bft)
02.02.2014 12:00 0,7 C 91 % 1,0 km/h (0 Bft) O-SO 1,00 h 0,025 mm 0,0 UV-I 107 W/m -0,6 C 0,7 C 2,6 km/h (1 Bft)
02.02.2014 13:00 0,9 C 90 % 1,8 km/h (1 Bft) O 1,00 h 0,025 mm 0,0 UV-I 120 W/m -0,6 C 0,9 C 3,5 km/h (1 Bft)
02.02.2014 14:00 1,2 C 89 % 1,7 km/h (1 Bft) O-SO 0,87 h 0,051 mm 0,0 UV-I 65 W/m -0,5 C 1,2 C 3,3 km/h (1 Bft)
02.02.2014 15:00 0,9 C 89 % 2,2 km/h (1 Bft) O-SO 0,30 h 0,025 mm 0,0 UV-I 39 W/m -0,6 C 0,9 C 4,1 km/h (1 Bft)
02.02.2014 16:00 0,8 C 89 % 1,8 km/h (1 Bft) S 0,00 h 0,025 mm 0,0 UV-I 14 W/m -0,8 C 0,8 C 3,2 km/h (1 Bft)
02.02.2014 17:00 0,6 C 90 % 1,5 km/h (1 Bft) O-NO 0,00 h 0,000 mm 0,0 UV-I 0 W/m -0,9 C 0,6 C 2,9 km/h (1 Bft)
02.02.2014 18:00 0,6 C 91 % 1,0 km/h (0 Bft) O-NO 0,00 h 0,000 mm 0,0 UV-I 0 W/m -0,7 C 0,6 C 2,8 km/h (1 Bft)
02.02.2014 19:00 0,4 C 92 % 0,2 km/h (0 Bft) O 0,00 h 0,000 mm 0,0 UV-I 0 W/m -0,7 C 0,4 C 1,1 km/h (0 Bft)
02.02.2014 20:00 0,3 C 94 % 0,6 km/h (0 Bft) O 0,00 h 0,000 mm 0,0 UV-I 0 W/m -0,6 C 0,3 C 1,8 km/h (1 Bft)
02.02.2014 21:00 0,1 C 94 % 0,3 km/h (0 Bft) NO 0,00 h 0,000 mm 0,0 UV-I 0 W/m -0,7 C 0,1 C 1,2 km/h (1 Bft)
02.02.2014 22:00 0,0 C 93 % 0,2 km/h (0 Bft) O-NO 0,00 h 0,000 mm 0,0 UV-I 0 W/m -0,9 C 0,0 C 1,0 km/h (0 Bft)
02.02.2014 23:00 -0,0 C 93 % 1,0 km/h (0 Bft) O-NO 0,00 h 0,000 mm 0,0 UV-I 0 W/m -1,0 C -0,0 C 2,6 km/h (1 Bft)
Min-Datum _ 30.01.14 30.01.14 27.01.14 - - - - - 30.01.14 30.01.14 27.01.14
_ Min-Zeit 08:13 12:38 00:27 - - - - - 08:57 16:39 00:27
Minimum _ -4,3 C 84 % 0,0 km/h (0 Bft) - - - - - -5,7 C -13,5 C 0,0 km/h (0 Bft)
Max-Datum _ 27.01.14 27.01.14 30.01.14 - 01.02.14 27.01.14 27.01.14 27.01.14 27.01.14 27.01.14 30.01.14
_ Max-Zeit 14:44 06:50 15:00 - 11:40 14:00 00:00 14:40 14:43 14:44 16:49
Maximum _ 3,2 C 96 % 19,3 km/h
O (3 Bft)
- 0,03 h 0,076 mm 0,0 UV-I 381 W/m 1,5 C 3,2 C 35,4 km/h
O (5 Bft)
Durchschnitt _ -0,7 C 91 % 4,2 km/h (1 Bft) O #39:57 h #2,050 mm 0,0 UV-I 83 W/m -1,9 C -1,2 C 7,7 km/h (2 Bft)